CDT,Max TemperatureF,Mean TemperatureF,Min TemperatureF,Max Dew PointF,MeanDew PointF,Min DewpointF,Max Humidity, Mean Humidity, Min Humidity, Max Sea Level PressureIn, Mean Sea Level PressureIn, Min Sea Level PressureIn, Max VisibilityMiles, Mean VisibilityMiles, Min VisibilityMiles, Max Wind SpeedMPH, Mean Wind SpeedMPH, Max Gust SpeedMPH,PrecipitationIn, CloudCover, Events, WindDirDegrees
2013-4-1,34,27,20,15,11,7,75,52,33,30.12,30.03,29.88,10,10,10,15,8,23,0.00,3,,307
2013-4-2,37,28,20,14,10,7,68,48,31,30.29,30.18,30.11,10,10,10,15,6,21,0.00,1,,301
2013-4-3,37,26,16,22,13,8,84,56,31,30.46,30.35,30.20,10,10,10,10,3,,0.00,0,,203
2013-4-4,50,40,30,32,24,20,67,54,39,30.19,30.01,29.90,10,10,10,14,8,23,0.00,1,,256
2013-4-5,37,32,27,26,19,15,78,59,42,30.27,30.19,30.06,10,10,10,12,5,,0.00,2,,98
2013-4-6,43,36,29,39,31,25,99,83,62,30.17,29.83,29.46,10,8,1,17,7,25,0.07,8,,153
2013-4-7,48,40,32,40,32,30,98,76,51,29.98,29.81,29.46,10,9,3,14,7,18,0.02,5,,257
2013-4-8,36,32,29,35,33,28,98,93,85,30.02,29.88,29.78,10,9,5,10,4,,0.04,6,,47
2013-4-9,39,35,31,36,32,24,100,92,73,30.13,30.06,30.02,10,6,1,16,4,24,0.25,8,,34
2013-4-10,38,34,29,29,26,18,97,76,49,30.19,30.09,30.03,10,9,1,15,10,22,0.49,8,,40
2013-4-11,34,32,29,29,27,20,97,84,56,30.05,29.88,29.71,10,7,1,17,11,28,0.16,7,,62
2013-4-12,32,30,29,30,29,28,99,92,85,29.73,29.66,29.60,10,6,1,10,5,,0.01,8,,30
2013-4-13,39,33,27,31,26,21,99,75,49,29.95,29.79,29.70,10,8,2,17,5,25,0.01,7,,282
2013-4-14,37,28,19,32,26,18,98,85,62,30.04,29.94,29.72,10,9,1,12,4,18,0.02,4,,80
2013-4-15,59,48,36,43,35,27,100,72,36,29.91,29.73,29.59,10,8,1,25,8,38,0.33,4,,234
2013-4-16,51,42,33,30,28,25,79,60,38,30.34,30.11,29.91,10,10,10,17,7,23,0.00,4,,293
2013-4-17,38,34,29,36,31,28,99,84,75,30.39,30.25,29.97,10,10,3,10,6,17,0.00,5,,57
2013-4-18,42,38,34,40,37,34,100,98,93,29.98,29.61,29.25,10,5,2,13,7,18,0.12,8,,48
2013-4-19,42,34,26,41,25,13,100,69,46,29.84,29.39,29.17,10,10,3,26,13,40,0.05,8,,268
2013-4-20,42,32,23,26,15,8,91,55,26,30.40,30.16,29.85,10,10,10,13,7,22,0.00,1,,301
2013-4-21,43,32,22,30,26,22,97,72,48,30.51,30.41,30.24,10,10,7,16,6,23,0.00,5,,157
2013-4-22,47,42,38,39,35,28,86,74,57,30.24,30.17,30.05,10,10,7,12,7,17,0.01,7,,138
2013-4-23,44,40,34,43,32,25,98,77,59,30.04,29.93,29.84,10,9,3,14,6,23,0.07,7,,346
2013-4-24,52,40,27,30,22,15,87,53,25,29.99,29.95,29.90,10,10,10,16,4,25,0.00,1,,278
2013-4-25,52,40,28,34,28,22,92,61,32,30.25,30.07,29.85,10,10,5,17,9,32,0.00,4,,273
2013-4-26,64,46,28,52,36,26,94,64,42,30.26,30.16,30.06,10,10,10,16,5,24,0.03,4,,178
2013-4-27,69,59,48,49,46,39,81,64,44,30.17,30.11,30.01,10,10,10,16,8,23,0.03,1,,191
2013-4-28,70,53,36,45,40,35,97,63,28,30.01,29.89,29.79,10,10,1,10,2,20,0.00,1,,140
2013-4-29,62,54,47,55,50,44,98,86,74,29.82,29.79,29.74,10,8,2,10,3,,0.07,6,,145
2013-4-30,69,58,47,54,50,46,96,76,56,29.82,29.71,29.66,10,9,4,17,9,24,0.19,3,,155